Location: Helsinki
(60.1699°N, 24.9384°E)
Time: 17:43:20
(UTC+02:00)

S-56A Canister/Altair - Pass Details

Date: 28 October 2020
Orbit: 633 x 2500 km, 38.9° (Epoch: 29 November)

Event Time Altitude Azimuth Distance (km) Brightness Sun altitude
Rises 07:10:05 0° 213° (SSW) 3,653 10.9 -3.5°
Reaches altitude 10° 07:13:50 10° 190° (S) 3,019 10.7 -3.1°
Maximum altitude 07:17:34 15° 159° (SSE) 3,002 11.2 -2.7°
Drops below altitude 10° 07:22:00 10° 130° (SE) 3,717 12.6 -2.2°
Sets 07:27:38 0° 111° (ESE) 5,149 15.1 -1.5°
